Miscellaneous Local Product
Issued by NWS Hastings, NE

Home | Current Version | Previous Version | Graphics & Text | Print | Product List | Glossary On
Versions: 1 2 3 4 5 6 7 8 9 10 11 12 13 14 15 16 17 18 19 20 21 22 23 24 25 26 27 28 29 30 31 32 33 34 35 36 37 38 39 40 41 42 43 44 45 46 47 48 49 50
000
AXUS43 KGID 290402
MISGRI

GID CWA HOURLY WEATHER ROUNDUP
NATIONAL WEATHER SERVICE HASTINGS NE
1100 PM CDT SAT MAR 28 2015

NOTE: "FAIR" INDICATES FEW OR NO CLOUDS BELOW 12,000 FEET WITH NO
SIGNIFICANT WEATHER AND/OR OBSTRUCTIONS TO VISIBILITY.

...SOUTH CENTRAL NEBRASKA...

CITY           SKY/WX    TMP DP  RH WIND       PRES   REMARKS
GRAND ISLAND   CLEAR     50  34  54 S23G33    29.84F
HASTINGS       CLEAR     51  35  54 S17       29.85F
KEARNEY        CLEAR     52  36  54 S20G26    29.82F
ORD            CLEAR     52  33  48 SE17      29.78F
YORK           CLEAR     46  34  61 S21       29.88F
AURORA         CLEAR     47  33  59 SE18G24   29.86F
LEXINGTON      CLEAR     56  38  49 SE16      29.79F
HOLDREGE       CLEAR     55  37  50 S20G25    29.81F
HEBRON         CLEAR     47  33  57 SE14      29.92F

...NEBRASKA PANHANDLE...

CITY           SKY/WX    TMP DP  RH WIND       PRES   REMARKS
CHADRON        CLEAR     62  35  36 W20G29    29.79R
ALLIANCE       PTCLDY    59  25  27 W16       29.80R
SCOTTSBLUFF    CLEAR     66  20  17 W10       29.84R
SIDNEY         PTCLDY    67  27  22 W26       29.86R

...WESTERN AND NORTH CENTRAL NEBRASKA...

CITY           SKY/WX    TMP DP  RH WIND       PRES   REMARKS
VALENTINE      MOCLDY    64  37  36 S26G36    29.65F
AINSWORTH      MOCLDY    59  36  42 S17G25    29.71R
ONEILL         PTCLDY    52  35  52 S23G31    29.72F
BROKEN BOW     CLEAR     54  36  50 S14G22    29.79F
IMPERIAL       PTCLDY    69  23  17 SW15      29.79R
NORTH PLATTE   MOCLDY    65  36  34 S9G32     29.80R
MCCOOK         PTCLDY    63  38  39 S14G20    29.80S

...EASTERN NEBRASKA...

CITY           SKY/WX    TMP DP  RH WIND       PRES   REMARKS
NORFOLK        CLEAR     45  34  65 SE22G31   29.84F
SO SIOUX CITY  CLEAR     45  30  55 S21G30    29.90F
TEKAMAH        CLEAR     43  31  62 SE15      29.95F
COLUMBUS       CLEAR     45  30  57 SE15      29.90F
ALBION         CLEAR     46  32  58 SE14G22   29.83F
OMAHA EPPLEY   CLEAR     44  32  62 SE16      29.99F
OFFUTT AFB     CLEAR     43  32  65 SE15      29.99F
MILLARD        CLEAR     45  32  61 SE14G20   29.98F
LINCOLN        CLEAR     47  33  58 S22G29    29.95F
NEBRASKA CITY  CLEAR     42  30  62 S15       30.01F
BEATRICE       CLEAR     45  33  64 SE17      29.96F
FALLS CITY     CLEAR     38  30  73 SE10      30.04F WCI  31

...NORTHERN KANSAS...

CITY           SKY/WX    TMP DP  RH WIND       PRES   REMARKS
GOODLAND       CLEAR     65  26  23 S17       29.86F
HILL CITY      CLEAR     60  40  47 S15G24    29.85F
NORTON         CLEAR     57  36  44 SE13      29.82F
PHILLIPSBURG   CLEAR     59  39  47 SE8       29.86F
SMITH CENTER   CLEAR     52  37  58 SE17      29.88F
BELOIT         CLEAR     54  37  54 SE16      29.89F
HAYS           CLEAR     59  39  47 S20       29.89F
RUSSELL        CLEAR     56  40  55 SE17      29.88F
CONCORDIA      CLEAR     50  37  61 SE21G26   29.92F
SALINA         CLEAR     55  40  56 SE17      29.95F
TOPEKA         CLEAR     45  32  60 SE15      30.08F



USA.gov is the U.S. government's official web portal to all federal, state and local government web resources and services.